Change the Weather History Date:

Friday, November 4, 2011

  Actual Average Record
Temperature  
Mean Temperature 51 °F 60 °F  
Max Temperature 58 °F 71 °F 85 °F (2010)
Min Temperature 43 °F 49 °F 31 °F (1935)
Degree Days  
Heating Degree Days 14 5  
Month to date heating degree days 26 20  
Since 1 July heating degree days 85 102  
Cooling Degree Days 0 0  
Month to date cooling degree days 0 0  
Year to date cooling degree days 565 728  
Growing Degree Days 2 (Base 50)    
Moisture  
Dew Point 43 °F    
Average Humidity 70    
Maximum Humidity 93    
Minimum Humidity 47    
Precipitation  
Precipitation 0.13 in 0.06 in 0.72 in (1972)
Month to date precipitation 0.17 0.24  
Year to date precipitation 11.48 11.14  
Since 1 July precipitation 0.94 1.25  
Sea Level Pressure  
Sea Level Pressure 29.88 in    
Wind  
Wind Speed 6 mph (WNW)    
Max Wind Speed 17 mph    
Max Gust Speed 21 mph    
Visibility 10 miles    
Events Rain    
T = Trace of Precipitation, MM = Missing Value Source: NWS Daily Summary

Daily Weather History Graph

Daily Weather History Graph

Search for Another Location

Airport or City:

Trip Planner

Search our weather history database for the weather conditions in past years. The results will help you decide how hot, cold, wet, or windy it might be!

Date:

Astronomy

Nov. 04, 2011 Rise Set
Actual Time 7:35 AM PDT 6:06 PM PDT
Civil Twilight 7:08 AM PDT 6:33 PM PDT
Nautical Twilight 6:37 AM PDT 7:04 PM PDT
Astronomical Twilight 6:06 AM PDT 7:35 PM PDT
Moon 2:54 PM PDT (11/4) 1:59 AM PDT (11/4)
Length of Visible Light 11h 25m
Length of Day
10h 31m
Waxing Gibbous, 70% of the Moon is Illuminated
Nov 4
Waxing Gibbous
Nov 10
Full
Nov 18
Last Quarter
Nov 24
New
Dec 2
First Quarter

Hourly Weather History & Observations

Time (PDT) Temp. Windchill Dew Point Humidity Pressure Visibility Wind Dir Wind Speed Gust Speed Precip Events Conditions
12:53 AM 48.0 °F - 46.0 °F 93% 29.85 in 10.0 mi East 4.6 mph - N/A   Overcast
1:53 AM 48.9 °F - 46.0 °F 90% 29.85 in 8.0 mi East 4.6 mph - 0.02 in Rain Rain
2:53 AM 48.0 °F - 46.0 °F 93% 29.83 in 10.0 mi East 4.6 mph - 0.01 in   Clear
3:53 AM 46.9 °F - 45.0 °F 93% 29.83 in 10.0 mi SSW 4.6 mph - N/A   Mostly Cloudy
4:33 AM 46.4 °F 44.3 °F 46.4 °F 100% 29.83 in 10.0 mi West 4.6 mph - 0.01 in Rain Light Rain
4:41 AM 46.4 °F 45.2 °F 46.4 °F 100% 29.83 in 7.0 mi West 3.5 mph - 0.02 in Rain Light Rain
4:53 AM 46.9 °F - 45.0 °F 93% 29.83 in 5.0 mi SSW 3.5 mph - 0.06 in Rain Rain
5:53 AM 46.9 °F - 45.0 °F 93% 29.83 in 10.0 mi Calm Calm - 0.03 in Rain Light Rain
6:53 AM 48.0 °F - 44.1 °F 86% 29.83 in 9.0 mi Calm Calm - 0.01 in Rain Light Rain
7:53 AM 46.0 °F 44.8 °F 45.0 °F 96% 29.85 in 10.0 mi South 3.5 mph - 0.00 in   Scattered Clouds
8:53 AM 48.0 °F - 45.0 °F 89% 29.88 in 10.0 mi Calm Calm - N/A   Scattered Clouds
9:53 AM 50.0 °F - 44.1 °F 80% 29.89 in 10.0 mi Calm Calm - N/A   Mostly Cloudy
10:53 AM 53.1 °F - 44.1 °F 71% 29.90 in 10.0 mi NNW 5.8 mph - N/A   Mostly Cloudy
11:53 AM 52.0 °F - 41.0 °F 66% 29.91 in 10.0 mi NW 6.9 mph - N/A   Scattered Clouds
12:53 PM 55.0 °F - 41.0 °F 59% 29.89 in 10.0 mi West 10.4 mph - N/A   Scattered Clouds
1:53 PM 57.0 °F - 39.9 °F 53% 29.88 in 10.0 mi WNW 13.8 mph - N/A   Scattered Clouds
2:53 PM 57.0 °F - 37.0 °F 47% 29.88 in 10.0 mi WNW 8.1 mph - N/A   Scattered Clouds
3:53 PM 57.9 °F - 37.9 °F 47% 29.87 in 10.0 mi West 11.5 mph 18.4 mph N/A   Scattered Clouds
4:53 PM 57.0 °F - 37.9 °F 49% 29.88 in 10.0 mi WNW 16.1 mph - N/A   Scattered Clouds
5:53 PM 54.0 °F - 39.0 °F 57% 29.89 in 10.0 mi WNW 12.7 mph - N/A   Partly Cloudy
6:53 PM 52.0 °F - 39.9 °F 63% 29.91 in 10.0 mi WNW 11.5 mph - N/A   Partly Cloudy
7:53 PM 51.1 °F - 41.0 °F 68% 29.93 in 10.0 mi WNW 11.5 mph - N/A   Partly Cloudy
8:53 PM 48.9 °F - 41.0 °F 74% 29.93 in 10.0 mi NW 8.1 mph - N/A   Clear
9:53 PM 48.9 °F - 42.1 °F 77% 29.94 in 10.0 mi WNW 6.9 mph - N/A   Partly Cloudy
10:53 PM 48.9 °F - 41.0 °F 74% 29.94 in 10.0 mi Calm Calm - N/A   Partly Cloudy
11:53 PM 46.0 °F - 39.9 °F 79% 29.94 in 10.0 mi Calm Calm - N/A   Partly Cloudy